Weather History for KBML - October, 2010

Change the Weather History Date:

Sunday, October 10, 2010

  Actual Average Record
Temperature  
Mean Temperature 42 °F -  
Max Temperature 59 °F 56 °F 75 °F (1997)
Min Temperature 30 °F 30 °F 30 °F (1999)
Degree Days  
Heating Degree Days 22    
Moisture  
Dew Point 28 °F    
Average Humidity 61    
Maximum Humidity 96    
Minimum Humidity 26    
Precipitation  
Precipitation 0.00 in - - ()
Sea Level Pressure  
Sea Level Pressure 29.77 in    
Wind  
Wind Speed 6 mph (NW)    
Max Wind Speed 10 mph    
Max Gust Speed 24 mph    
Visibility 10 miles    
Events      
Averages and records for this station are not official NWS values.
T = Trace of Precipitation, MM = Missing Value Source: NWS Daily Summary

Daily Weather History Graph

Daily Weather History Graph

Search for Another Location

Airport or City:

Trip Planner

Search our weather history database for the weather conditions in past years. The results will help you decide how hot, cold, wet, or windy it might be!

Date:

Astronomy

Oct. 10, 2010 Rise Set
Actual Time 6:53 AM EDT 6:09 PM EDT
Civil Twilight 6:24 AM EDT 6:38 PM EDT
Nautical Twilight 5:50 AM EDT 7:11 PM EDT
Astronomical Twilight 5:16 AM EDT 7:45 PM EDT
Moon 10:33 AM EDT (10/10) 7:37 PM EDT (10/10)
Length of Visible Light 12h 13m
Length of Day
11h 15m
Waxing Crescent, 11% of the Moon is Illuminated
Oct 10
Waxing Crescent
Oct 14
First Quarter
Oct 22
Full
Oct 30
Last Quarter
Nov 6
New

Hourly Weather History & Observations

Time (EDT) Temp. Windchill Dew Point Humidity Pressure Visibility Wind Dir Wind Speed Gust Speed Precip Events Conditions
12:52 AM 39.9 °F 35.8 °F 28.0 °F 63% 29.91 in 10.0 mi Variable 5.8 mph - N/A   Clear
1:52 AM 39.9 °F 34.5 °F 28.0 °F 63% 29.90 in 10.0 mi WNW 8.1 mph - N/A   Clear
2:52 AM 39.9 °F 36.7 °F 27.0 °F 60% 29.88 in 10.0 mi Variable 4.6 mph - N/A   Clear
3:52 AM 39.0 °F 34.0 °F 27.0 °F 62% 29.88 in 10.0 mi Variable 6.9 mph - N/A   Clear
4:52 AM 39.0 °F 34.0 °F 27.0 °F 62% 29.88 in 10.0 mi Variable 6.9 mph - N/A   Clear
5:52 AM 37.9 °F 32.7 °F 27.0 °F 65% 29.88 in 10.0 mi WNW 6.9 mph - N/A   Clear
6:52 AM 37.9 °F 33.5 °F 27.0 °F 65% 29.90 in 10.0 mi Variable 5.8 mph - N/A   Unknown
7:52 AM 39.0 °F 34.8 °F 28.0 °F 65% 29.87 in 10.0 mi East 5.8 mph - N/A   Clear
8:52 AM 44.1 °F 40.8 °F 27.0 °F 51% 29.85 in 10.0 mi Variable 5.8 mph - N/A   Clear
9:52 AM 46.9 °F - 27.0 °F 46% 29.82 in 10.0 mi NW 9.2 mph 17.3 mph N/A   Clear
10:52 AM 48.9 °F - 27.0 °F 43% 29.79 in 10.0 mi NW 9.2 mph 18.4 mph N/A   Clear
11:52 AM 53.1 °F - 27.0 °F 37% 29.75 in 10.0 mi WNW 10.4 mph 18.4 mph N/A   Clear
12:52 PM 55.0 °F - 26.1 °F 33% 29.72 in 10.0 mi WNW 10.4 mph 24.2 mph N/A   Clear
3:52 PM 55.9 °F - 23.0 °F 28% 29.65 in 10.0 mi WNW 8.1 mph 17.3 mph N/A   Overcast
4:52 PM 55.9 °F - 21.0 °F 26% 29.63 in 10.0 mi Variable 4.6 mph - N/A   Mostly Cloudy
5:52 PM 53.1 °F - 26.1 °F 35% 29.62 in 10.0 mi Calm Calm - N/A   Overcast
6:52 PM 43.0 °F - 34.0 °F 71% 29.64 in 10.0 mi Calm Calm - N/A   Partly Cloudy
7:52 PM 37.9 °F - 33.1 °F 83% 29.65 in 10.0 mi Calm Calm - N/A   Clear
8:52 PM 35.1 °F - 32.0 °F 89% 29.65 in 10.0 mi Calm Calm - N/A   Clear
9:52 PM 30.9 °F - 28.9 °F 92% 29.67 in 10.0 mi Calm Calm - N/A   Clear
10:52 PM 30.0 °F - 28.9 °F 96% 29.67 in 10.0 mi Calm Calm - N/A   Clear
11:52 PM 30.9 °F - 30.0 °F 96% 29.65 in 10.0 mi Calm Calm - N/A   Clear